TITAN 3C TRANSTAGE DEB, 43453

Orbit data source: Space-Track

TITAN 3C TRANSTAGE DEB, 43453 is space debris originally from a launch on Sun, 09 Feb 1969 UTC launched from the Air Force Eastern Test Range (AFETR). Debris objects in space refer to the collection of defunct objects orbiting the Earth. Examples of debris include non-operational satellites, rocket bodies, and fragments generated from explosions, collisions, or faulty payload assembly.

Not visible in the next 10 days
TITAN 3C TRANSTAGE DEB details
Identifier
43453, 1969-013L
Orbit
Active
Last TLE update1 day ago
Origin
Flag of USUSAF SMC (US)
ManufacturerMartin Marietta
MissionSpacecraft
Bus & MotorUnknown
MassUnknown
Launch date (UTC)
1969-02-09 (56 years ago)
Launch vehicleUnknown
Launch site
Air Force Eastern Test Range (AFETR)
Object type
Payload
Rocket body
Debris
Shape & HBRUnknown
Radar Cross SectionRCS unknown

Expand to show TLE details & history

TLE from 1 day ago
0 TITAN 3C TRANSTAGE DEB
1 43453U 69013L   24325.21804410 -.00000181  00000-0  00000+0 0  9994
2 43453   1.2986 203.7057 0718867 279.3559  73.4897  1.07403067 25876
Epoch: 2024-11-20T05:13Z
Definitive object data (Epoch: 2024-11-20T05:13:59.01Z)
Latitude-0.00001°
Longitude66.38491°
Altitude33,281.33 km
Speed3.195 km/s
True Right ascension13h 38m 23s
True Declination0° 00' 00"
Sunlit
Object was in daylight at TLE epoch
Visualization TLE readout
Latitude1.27591°
Longitude146.2804°
Altitude36,616.677 km
Speed2.94 km/s
Apparent Right ascension18h 51m 35s
Apparent Declination-3° 44' 03"
Sunlit
Object is in daylight
Visualization observer readout
Local Sidereal Time05:55:00
Azimuth336.873° NNW
Elevation-51.623°
Doppler factor1
Orbital elements
Apogee altitude36,795.477 km
Perigee altitude31,004.551 km
Semi-major axis40,278.151 km
Eccentricity0.0718867
Inclination1.2986°
RAAN203.7057°
Arg. of periapsis279.3559°
True anomaly81.56749°
Mean anomaly73.4897°
Eccentric anomaly77.51104°
Mean motion0.2685 °/min
BSTARUnknown
Orbital period1340.8 mins
Loading maneuver chart data...

TITAN 3C TRANSTAGE DEB Visibility forecast

Observer location: undefined°, undefined

TITAN 3C TRANSTAGE DEB is not visible in the next 10 days
Span
Click to sort rows by Start time (UTC) header in descending order
Start Az.
Max El. time (UTC)
Max El. Az.
Max El.
End time (UTC)
End Az.
|